カタログに戻る

CZ-4 DEB

運用中PO
NORAD 26129·DEBRIS·🇨🇳 China

打ち上げ Oct 14, 1999 から Taiyuan Satellite Launch Center

Loading…

次のパス (今後24時間)

TLE

最新Source: Space-Track

元期: Sep 13, 2026, 23:11 UTC

1 26129U 99057R   26256.96663298  .00000603  00000-0  44913-3 0  9993
2 26129  99.0094  75.7130 0435203 280.6773  74.5661 13.61427771310312

AllMySatでCZ-4 DEBをリアルタイム追跡

Download on the App Store